Regional Weather Roundup
Issued by NWS

Home | Current Version | Previous Version | Text Only | Print | Product List | Glossary Off
Versions: 1 2 3 4 5 6 7 8 9 10 11 12 13 14 15 16 17 18 19 20 21 22 23 24 25 26 27 28 29 30 31 32 33 34 35 36 37 38 39 40 41 42 43 44 45 46 47 48 49 50

000
ASUS43 KMPX 100501
RWRMN
WEATHER ROUNDUP FOR MINNESOTA
NATIONAL WEATHER SERVICE TWIN CITIES/CHANHASSEN MN
1100 PM CST SAT DEC 09 2017


NOTE: "FAIR" INDICATES FEW OR NO CLOUDS BELOW 12,000 FEET WITH NO
SIGNIFICANT WEATHER AND/OR OBSTRUCTIONS TO VISIBILITY. N/A MEANS
CURRENT SKY AND/OR WEATHER CONDITIONS ARE NOT AVAILABLE.

MNZ060>063-068>070-100600-
   Twin Cities Metro

CITY           SKY/WX    TMP DP  RH WIND       PRES   REMARKS
TWIN CITIES    CLOUDY    24  17  74 S8        29.87F WCI  15
ST PAUL        CLOUDY    23  17  78 S10       29.88F WCI  12
CRYSTAL        PTCLDY    22  13  68 S7        29.85F WCI  13
BLAINE         PTCLDY    23  18  80 S7        29.84F WCI  15
LAKEVILLE        N/A     21  18  86 S3        29.89S
EDEN PRAIRIE   CLOUDY    23  16  74 S10       29.85F WCI  12
SOUTH ST PAUL  CLOUDY    24  16  72 S7        29.88F WCI  16
LAKE ELMO      CLOUDY    23  18  80 S13       29.87F WCI  11
$$
MNZ001>005-007-008-013>017-022>024-027-028-100600-
   Northwest Minnesota

CITY           SKY/WX    TMP DP  RH WIND       PRES   REMARKS
BEMIDJI        CLOUDY    16  14  92 CALM      29.73S
HALLOCK        CLOUDY    25  19  80 N14G20    29.83R WCI  13
ROSEAU         CLOUDY    18  12  79 CALM      29.79R
WARROAD        CLOUDY    19  18  93 CALM      29.79R
CROOKSTON      CLOUDY    25  19  80 N14       29.83R WCI  13
FOSSTON        CLOUDY    19  18  93 W9        29.76R WCI   9
DETROIT LAKES  CLOUDY    30  25  80 NW18      29.76S WCI  18
MOORHEAD       CLOUDY    30  23  74 NW13      29.81S WCI  20
PARK RAPIDS    CLOUDY    17  12  80 S3        29.73F
MAHNOMEN       FAIR      24  21  87 W14       29.75S WCI  12
$$
MNZ006-009>011-018-025>026-100600-
   North Central Minnesota

CITY           SKY/WX    TMP DP  RH WIND       PRES   REMARKS
BAUDETTE       CLOUDY    18  14  84 NE3       29.76R
FLAG ISLAND    CLOUDY    18  14  86 CALM      29.78R
INTL FALLS     CLOUDY    17  11  77 CALM      29.76S
WASKISH        CLOUDY    19  16  86 CALM      29.74S
BIG FORK       CLOUDY    19  14  79 CALM      29.73F
GRAND RAPIDS   CLOUDY    20  14  77 S6        29.76F WCI  12
ORR            CLOUDY    16   9  73 S3        29.72F
COOK           CLOUDY    16  10  79 CALM      29.75F
WALKER         FAIR      18  14  84 SW6       29.73S WCI  10
$$
MNZ012-019>021-037-100600-
   Northeast Minnesota

CITY           SKY/WX    TMP DP  RH WIND       PRES   REMARKS
DULUTH         CLOUDY    17  13  84 SW9       29.77F WCI   6
ELY            CLOUDY    16  10  79 SW6       29.74F WCI   7
HIBBING        CLOUDY    17  11  77 SE3       29.75F
EVELETH        CLOUDY    17  12  78 CALM      29.76F
DULUTH HARBOR  CLOUDY    21  16  79 S7        29.83F WCI  13
TWO HARBORS    CLOUDY    19  16  86 SW3       29.77F
G MARAIS ARPRT CLOUDY    10   5  79 CALM      29.72F
$$
MNZ029>031-032-039>041-046>048-054>057-064-100600-
   West Central Minnesota

CITY           SKY/WX    TMP DP  RH WIND       PRES   REMARKS
FERGUS FALLS   CLOUDY    21  19  93 CALM      29.82S
MORRIS         CLOUDY    27  21  80 W14       29.79F WCI  15
ALEXANDRIA     CLOUDY    22  20  92 W9        29.77F WCI  12
ELBOW LAKE     FAIR      25  21  87 W12       29.79F WCI  14
WADENA         CLOUDY    21  19  93 W9        29.74F WCI  11
GLENWOOD       CLOUDY    19  18  93 SW9       29.79F WCI   9
BENSON         CLOUDY    21  19  93 W6        29.82F WCI  14
ORTONVILLE     CLEAR     34  25  69 NW14      29.83S WCI  24
MADISON        CLEAR     34  27  75 W10       29.84S WCI  26
WILLMAR        FAIR      25  19  80 SW8       29.83F WCI  16
$$
MNZ033>034-036-042>043-049>051-058-059-100600-
   Central Minnesota

CITY           SKY/WX    TMP DP  RH WIND       PRES   REMARKS
ST CLOUD       CLOUDY    19  14  81 S6        29.81F WCI  11
SAUK CENTRE    FAIR      21  18  87 SW5       29.79F WCI  15
PAYNESVILLE    CLEAR     24  21  89 SW10      29.81F WCI  13
AITKIN         CLOUDY    19  12  73 SW6       29.76F WCI  11
PINE RIVER     CLEAR     14  10  85 CALM      29.79F
BRAINERD       CLEAR     17  13  84 S5        29.77F WCI  10
STAPLES        CLOUDY    18  16  93 S3        29.75F
LONG PRAIRIE   FAIR      21  18  86 S7        29.78F WCI  13
LITTLE FALLS   CLOUDY    19  12  73 SE3       29.79F
LITCHFIELD     CLEAR     25  21  86 S5        29.83F WCI  19
BUFFALO        CLEAR     22  17  80 S3        29.85F
MAPLE LAKE     CLEAR     23  19  85 S5        29.84F WCI  16
HUTCHINSON     CLOUDY    24  20  85 S9        29.85F WCI  15
$$
MNZ037-044-045-052-053-100600-
   East Central Minnesota

CITY           SKY/WX    TMP DP  RH WIND       PRES   REMARKS
PRINCETON      CLEAR     21  16  79 S3        29.82F
MORA           CLEAR     19  14  79 SW3       29.85S
CAMBRIDGE      CLEAR     23  14  68 S6        29.84F WCI  16
RUSH CITY      CLOUDY    21  15  76 S5        29.84F WCI  15
MOOSE LAKE     CLOUDY    21  14  73 S6        29.79F WCI  14
HINCKLEY       MOCLDY    21  18  86 S6        29.82S WCI  14
CLOQUET        CLOUDY    19  12  73 S6        29.77F WCI  11
MCGREGOR       CLOUDY    23  18  80 SW7       29.78F WCI  15
$$
MNZ071>073-080-081-089-090-097-098-100600-
   Southwest Minnesota

CITY           SKY/WX    TMP DP  RH WIND       PRES   REMARKS
MONTEVIDEO     CLEAR     27  21  80 W5        29.83F WCI  21
GRANITE FALLS  CLEAR     26  22  83 SW10      29.86F WCI  17
CANBY          CLEAR     35  26  69 NW17      29.86R WCI  24
MARSHALL       CLEAR     30  23  75 W18       29.85S WCI  18
REDWOOD FALLS  CLOUDY    27  20  75 SW12      29.84F WCI  17
OLIVIA         CLEAR     27  21  80 SW9       29.84R WCI  17
PIPESTONE      CLOUDY    23  19  86 W8        29.88F WCI  14
WINDOM           N/A     25  12  58 SW9       29.87F WCI  15
WORTHINGTON    CLOUDY    24  19  81 SW16      29.88F WCI  11
JACKSON        CLOUDY    25  21  86 MISG      29.87F
TRACY          CLOUDY    31  25  77 W15       29.84S WCI  20
$$
MNZ065>067-074>077-082>085-091>093-100600-
   South Central Minnesota

CITY           SKY/WX    TMP DP  RH WIND       PRES   REMARKS
MANKATO        CLOUDY    25  20  81 SW9       29.89F WCI  15
NEW ULM        CLOUDY    25  19  80 SW7       29.86S WCI  17
ST JAMES       CLOUDY    27  21  80 S12       29.87F WCI  16
FAIRMONT       CLOUDY    24  20  84 SW16      29.88F WCI  11
GLENCOE        CLEAR     24  20  84 S8        29.85F WCI  15
FARIBAULT      CLOUDY    25  18  74 S7        29.90R WCI  17
WASECA         CLOUDY    23  19  86 SW10      29.91S WCI  12
ALBERT LEA     MOCLDY    25  16  68 SW12G18   29.89F WCI  14
$$
MNZ078>079-086>088-094>096-100600-
   Southeast Minnesota

CITY           SKY/WX    TMP DP  RH WIND       PRES   REMARKS
ROCHESTER      CLOUDY    21  16  81 S13       29.91F WCI   9
RED WING       CLOUDY    25  14  63 S6        29.91F WCI  18
STANTON        CLOUDY    25  19  76 S8        29.88F WCI  16
DODGE CENTER   CLOUDY    21  16  79 SW12      29.89F WCI   9
WINONA           N/A     23  16  74 CALM      29.98F
AUSTIN         MOCLDY    21  16  79 SW9       29.90F WCI  11
PRESTON        CLOUDY    20  14  77 S8        29.94F WCI  10
$$
ABBREVIATIONS USED IN REMARKS
   TC - TEMPERATURES IN CELSIUS
  WCI - WIND CHILL INDEX
   HX - HEAT INDEX
  VSB - VISIBILITY
$$




USA.gov is the U.S. government's official web portal to all federal, state and local government web resources and services.